[[{"header":{"parameterUnit":"m.s-1","parameterCategory":1,"la1":30.2992,"la2":30.254,"lo1":-89.0895,"lo2":-89.0443,"dy":0.0025,"dx":0.0025,"nx":19,"ny":19,"refTime":"2026-03-27T21:00:00:Z","depth":0,"parameterNumber":2,"parameterNumberName":"U-component_of_WINDS"},"data":[0,0,0,-1.8253,-1.8254,-1.8292,-1.8292,-1.8346,-1.8347,0,0,0,0,0,0,0,0,0,0,0,-1.8246,-1.8246,-1.8253,-1.8254,-1.8292,-1.8292,-1.8346,-1.8347,0,0,0,0,0,0,0,0,0,0,0,-1.8246,-1.8246,-1.8247,-1.8254,-1.8292,-1.8292,-1.8346,-1.8315,0,0,0,0,0,0,0,0,0,0,-1.8277,-1.8275,-1.8246,-1.8247,-1.8255,-1.8292,-1.8292,-1.8314,-1.8317,-1.8332,0,-1.8346,0,-1.8347,-1.8351,-1.8351,0,0,0,-1.8251,-1.8272,-1.8279,-1.8247,-1.8255,-1.8292,-1.8274,-1.8316,-1.832,-1.8336,-1.8347,-1.8348,-1.8348,-1.8351,-1.8352,-1.8446,-1.8446,0,0,-1.8249,-1.8255,-1.8276,-1.8281,-1.8276,-1.8273,-1.8275,-1.8318,-1.8329,-1.8347,-1.835,-1.8349,-1.8352,-1.8352,-1.8445,-1.8446,0,0,0,-1.8245,-1.8253,-1.8259,-1.8279,-1.8286,-1.8274,-1.8277,-1.8328,-1.8329,-1.835,-1.835,-1.8352,-1.8353,-1.8445,-1.8445,-1.8481,0,0,0,-1.8244,-1.8251,-1.8258,-1.8262,-1.8285,-1.8307,-1.8286,-1.8326,-1.8331,-1.8349,-1.8352,-1.8353,-1.8444,-1.8445,-1.8478,-1.8497,0,0,0,-1.8242,-1.8251,-1.8258,-1.8262,-1.8279,-1.8306,-1.831,-1.8327,-1.833,-1.8351,-1.8353,-1.8443,-1.8445,-1.8476,-1.8493,-1.8524,0,0,0,-1.8242,-1.8288,-1.8258,-1.831,-1.8279,-1.8328,-1.831,-1.8346,-1.8368,-1.8352,-1.8444,-1.8445,-1.8476,-1.8491,-1.8522,-1.8552,-1.8564,0,0,-1.8303,-1.8296,-1.8325,-1.83,-1.8356,-1.8321,-1.8382,-1.8397,-1.8393,-1.8428,-1.843,-1.8479,-1.8493,-1.8523,-1.8631,-1.8642,0,0,0,-1.8347,-1.8369,-1.8382,-1.8403,-1.8415,-1.8427,-1.8431,-1.8437,-1.8466,-1.8412,-1.8498,-1.8506,-1.8523,-1.8537,-1.8546,-1.8561,-1.8452,-1.8452,-1.8452,-1.8443,-1.8436,-1.8485,-1.8482,-1.8503,-1.8507,-1.8523,-1.853,-1.8517,-1.8537,-1.8548,-1.8614,-1.8631,-1.8637,-1.8653,-1.8562,-1.8562,-1.8562,-1.8562,-1.8534,-1.8563,-1.8544,-1.8585,-1.8576,-1.861,-1.8615,-1.8604,-1.8634,-1.8605,-1.8621,-1.8591,-1.8649,-1.8662,-1.8565,-1.8564,-1.8564,-1.8564,-1.8564,-1.8597,-1.861,-1.8615,-1.8645,-1.8669,-1.8664,-1.8694,-1.8685,-1.8676,-1.8691,-1.8702,-1.8702,-1.8701,-1.8697,-1.8697,-1.8697,-1.8697,-1.8698,-1.8698,-1.8661,-1.8666,-1.8693,-1.8709,-1.8721,-1.8736,-1.874,-1.8751,-1.8762,-1.8753,-1.8753,-1.8738,-1.8655,-1.8635,-1.8701,-1.8701,-1.87,-1.87,-1.87,-1.8758,-1.8735,-1.8776,-1.8788,-1.8806,-1.883,-1.8818,-1.8842,-1.885,-1.8865,-1.8846,-1.8786,-1.8778,-1.8771,-1.8755,-1.8847,-1.8847,-1.8847,-1.8847,-1.8813,-1.8807,-1.8847,-1.8867,-1.8886,-1.8879,-1.8925,-1.8928,-1.8927,-1.8931,-1.8916,-1.8893,-1.8886,-1.8882,-1.8872,-1.8857,-1.8974,-1.8974,-1.8974,-1.8872,-1.8868,-1.891,-1.8908,-1.8922,-1.8933,-1.8976,-1.9,-1.8993,-1.8979,-1.8935,-1.8929,-1.8892,-1.888,-1.8866,-1.8852,-1.8823,0,0]},{"header":{"parameterUnit":"m.s-1","parameterCategory":1,"la1":30.2992,"la2":30.254,"lo1":-89.0895,"lo2":-89.0443,"dy":0.0025,"dx":0.0025,"nx":19,"ny":19,"refTime":"2026-03-27T21:00:00:Z","depth":0,"parameterNumber":3,"parameterNumberName":"V-component_of_WINDS"},"data":[0,0,0,-6.2515,-6.2516,-6.2591,-6.2591,-6.269,-6.2691,0,0,0,0,0,0,0,0,0,0,0,-6.2497,-6.2497,-6.2514,-6.2516,-6.2591,-6.2591,-6.269,-6.2691,0,0,0,0,0,0,0,0,0,0,0,-6.2496,-6.2497,-6.2498,-6.2517,-6.2591,-6.2591,-6.2689,-6.2631,0,0,0,0,0,0,0,0,0,0,-6.2558,-6.2546,-6.2497,-6.2498,-6.2517,-6.2591,-6.2591,-6.2628,-6.2635,-6.2658,0,-6.2682,0,-6.2689,-6.2698,-6.2698,0,0,0,-6.2512,-6.2541,-6.2558,-6.2499,-6.2518,-6.2591,-6.2556,-6.2632,-6.2639,-6.2667,-6.2684,-6.2687,-6.269,-6.2699,-6.2699,-6.2855,-6.2856,0,0,-6.2508,-6.2511,-6.2553,-6.2563,-6.2554,-6.2554,-6.2559,-6.2636,-6.2654,-6.2684,-6.2689,-6.2692,-6.2699,-6.27,-6.2854,-6.2855,0,0,0,-6.2499,-6.2509,-6.2524,-6.2559,-6.2572,-6.2556,-6.2562,-6.265,-6.2655,-6.269,-6.2693,-6.27,-6.2701,-6.2853,-6.2854,-6.2906,0,0,0,-6.2496,-6.2503,-6.2522,-6.2525,-6.2571,-6.2613,-6.2574,-6.265,-6.2658,-6.2692,-6.27,-6.2702,-6.2852,-6.2854,-6.2902,-6.2929,0,0,0,-6.249,-6.2503,-6.2515,-6.2525,-6.2557,-6.2611,-6.262,-6.2651,-6.266,-6.2698,-6.2702,-6.2851,-6.2853,-6.2899,-6.2924,-6.2973,0,0,0,-6.2483,-6.2557,-6.2516,-6.2599,-6.2557,-6.2643,-6.262,-6.2683,-6.2722,-6.27,-6.2852,-6.2854,-6.2898,-6.292,-6.297,-6.3016,-6.3035,0,0,-6.2578,-6.2568,-6.2617,-6.2583,-6.2678,-6.2632,-6.2733,-6.2764,-6.2762,-6.2823,-6.2827,-6.2903,-6.2923,-6.2972,-6.3142,-6.3157,0,0,0,-6.2648,-6.2683,-6.2708,-6.2747,-6.2775,-6.28,-6.2815,-6.2827,-6.288,-6.2795,-6.2934,-6.2945,-6.2974,-6.2996,-6.3009,-6.3034,-6.2864,-6.2864,-6.2864,-6.2785,-6.2783,-6.2864,-6.2872,-6.291,-6.2927,-6.2957,-6.2975,-6.2958,-6.2991,-6.3009,-6.3113,-6.3139,-6.3149,-6.3174,-6.3032,-6.3033,-6.3033,-6.3033,-6.2924,-6.2975,-6.2955,-6.3027,-6.3023,-6.3082,-6.3101,-6.3088,-6.3141,-6.3098,-6.3123,-6.3077,-6.3166,-6.3188,-6.3037,-6.3036,-6.3036,-6.3035,-6.3035,-6.3015,-6.3039,-6.3055,-6.3114,-6.3159,-6.3162,-6.3216,-6.3209,-6.3203,-6.3228,-6.3248,-6.3247,-6.3246,-6.3238,-6.3238,-6.3238,-6.3239,-6.3239,-6.3239,-6.3103,-6.312,-6.3168,-6.3206,-6.3232,-6.3265,-6.3284,-6.3308,-6.3333,-6.3324,-6.3324,-6.3305,-6.3175,-6.3144,-6.3245,-6.3244,-6.3243,-6.3243,-6.3242,-6.3247,-6.3215,-6.3289,-6.3316,-6.3361,-6.3407,-6.3399,-6.3449,-6.3468,-6.3495,-6.3471,-6.3377,-6.3365,-6.3354,-6.3328,-6.3471,-6.3471,-6.3471,-6.3471,-6.3324,-6.3319,-6.3396,-6.3439,-6.348,-6.3482,-6.3565,-6.358,-6.359,-6.3602,-6.358,-6.3544,-6.3534,-6.3529,-6.3514,-6.349,-6.3671,-6.3671,-6.3671,-6.3413,-6.3412,-6.3486,-6.3499,-6.3535,-6.3565,-6.3643,-6.3692,-6.3696,-6.3679,-6.3611,-6.3603,-6.3545,-6.3526,-6.3508,-6.3485,-6.344,0,0]}]]